Appleton, MN

4:55 AM CDT on September 23, 2017 (GMT -0500)
Appleton Municipal

Weather History for KAQP - December, 2013

Change the Weather History Date:

Saturday, December 7, 2013

  Actual Average Record
Temperature  
Mean Temperature -8 °F -  
Max Temperature 1 °F 29 °F 42 °F (1998)
Min Temperature -16 °F 13 °F -16 °F (2013)
Degree Days  
Heating Degree Days 72    
Moisture  
Dew Point -15 °F    
Average Humidity 74    
Maximum Humidity 84    
Minimum Humidity 55    
Precipitation  
Precipitation 0.00 in - - ()
Sea Level Pressure  
Sea Level Pressure 30.61 in    
Wind  
Wind Speed 5 mph (WSW)    
Max Wind Speed 9 mph    
Max Gust Speed -    
Visibility 10 miles    
Events      
Averages and records for this station are not official NWS values.
T = Trace of Precipitation, MM = Missing Value Source: NWS Daily Summary

Daily Weather History Graph

Daily Weather History Graph

Search for Another Location

Airport or City:

Trip Planner

Search our weather history database for the weather conditions in past years. The results will help you decide how hot, cold, wet, or windy it might be!

Date:

Astronomy

Dec. 07, 2013 Rise Set
Actual Time 7:49 AM CST 4:41 PM CST
Civil Twilight 7:15 AM CST 5:15 PM CST
Nautical Twilight 6:38 AM CST 5:52 PM CST
Astronomical Twilight 6:02 AM CST 6:28 PM CST
Moon 11:25 AM CST (12/7) 10:35 PM CST (12/7)
Length of Visible Light 9h 59m
Length of Day
8h 52m
Waxing Crescent, 29% of the Moon is Illuminated
Dec 7
Waxing Crescent
Dec 9
First Quarter
Dec 17
Full
Dec 25
Last Quarter
Jan 1
New

Hourly Weather History & Observations

Time (CST) Temp. Windchill Dew Point Humidity Pressure Visibility Wind Dir Wind Speed Gust Speed Precip Events Conditions
12:13 AM -11.2 °F -27.8 °F -16.6 °F 77% 30.66 in 10.0 mi West 8.1 mph - N/A   Clear
12:33 AM -13.0 °F -27.0 °F -18.4 °F 77% 30.65 in 10.0 mi WSW 5.8 mph - N/A   Clear
12:53 AM -13.0 °F -28.6 °F -18.4 °F 77% 30.66 in 10.0 mi West 6.9 mph - N/A   Clear
1:13 AM -13.0 °F -28.6 °F -18.4 °F 77% 30.65 in 10.0 mi West 6.9 mph - N/A   Clear
1:33 AM -14.8 °F -27.2 °F -20.2 °F 77% 30.66 in 10.0 mi WSW 4.6 mph - N/A   Clear
1:54 AM -14.8 °F -29.1 °F -20.2 °F 77% 30.66 in 10.0 mi West 5.8 mph - N/A   Clear
2:13 AM -14.8 °F -32.2 °F -20.2 °F 77% 30.65 in 10.0 mi West 8.1 mph - N/A   Clear
2:33 AM -14.8 °F -33.5 °F -18.4 °F 84% 30.66 in 10.0 mi West 9.2 mph - N/A   Clear
2:53 AM -11.2 °F -26.4 °F -16.6 °F 77% 30.66 in 10.0 mi West 6.9 mph - N/A   Clear
3:13 AM -14.8 °F -29.1 °F -20.2 °F 77% 30.66 in 10.0 mi WSW 5.8 mph - N/A   Clear
3:33 AM -14.8 °F -27.2 °F -20.2 °F 77% 30.66 in 10.0 mi West 4.6 mph - N/A   Clear
3:53 AM -14.8 °F -27.2 °F -18.4 °F 84% 30.66 in 10.0 mi WSW 4.6 mph - N/A   Clear
4:13 AM -14.8 °F -27.2 °F -20.2 °F 77% 30.66 in 10.0 mi WSW 4.6 mph - N/A   Clear
4:33 AM -14.8 °F -24.8 °F -20.2 °F 77% 30.65 in 10.0 mi SW 3.5 mph - N/A   Clear
4:53 AM -14.8 °F - -18.4 °F 84% 30.65 in 10.0 mi Calm Calm - N/A   Clear
5:13 AM -14.8 °F -24.8 °F -20.2 °F 77% 30.65 in 10.0 mi SW 3.5 mph - N/A   Clear
5:33 AM -14.8 °F -24.8 °F -18.4 °F 84% 30.66 in 10.0 mi SW 3.5 mph - N/A   Clear
5:53 AM -16.6 °F -29.3 °F -20.2 °F 84% 30.65 in 10.0 mi WSW 4.6 mph - N/A   Clear
6:13 AM -16.6 °F -29.3 °F -20.2 °F 84% 30.66 in 10.0 mi WSW 4.6 mph - N/A   Clear
6:33 AM -16.6 °F -29.3 °F -20.2 °F 84% 30.66 in 10.0 mi WSW 4.6 mph - N/A   Clear
6:54 AM -16.6 °F -29.3 °F -20.2 °F 84% 30.67 in 10.0 mi WSW 4.6 mph - N/A   Clear
7:14 AM -14.8 °F -27.2 °F -20.2 °F 77% 30.67 in 10.0 mi WSW 4.6 mph - N/A   Clear
7:33 AM -14.8 °F -24.8 °F -20.2 °F 77% 30.67 in 10.0 mi SW 3.5 mph - N/A   Clear
7:53 AM -14.8 °F -27.2 °F -20.2 °F 77% 30.66 in 10.0 mi SSW 4.6 mph - N/A   Clear
8:13 AM -14.8 °F -29.1 °F -20.2 °F 77% 30.66 in 10.0 mi SW 5.8 mph - N/A   Clear
8:33 AM -14.8 °F -24.8 °F -18.4 °F 84% 30.66 in 10.0 mi SW 3.5 mph - N/A   Clear
8:53 AM -11.2 °F - -16.6 °F 77% 30.66 in 10.0 mi Calm Calm - N/A   Clear
9:13 AM -9.4 °F -18.6 °F -16.6 °F 71% 30.66 in 10.0 mi SW 3.5 mph - N/A   Clear
9:33 AM -9.4 °F -24.3 °F -14.8 °F 77% 30.67 in 10.0 mi WSW 6.9 mph - N/A   Clear
9:53 AM -7.6 °F -23.4 °F -14.8 °F 71% 30.67 in 10.0 mi WSW 8.1 mph - N/A   Clear
10:14 AM -7.6 °F -24.6 °F -14.8 °F 71% 30.68 in 10.0 mi WSW 9.2 mph - N/A   Clear
10:33 AM -5.8 °F -22.4 °F -14.8 °F 65% 30.68 in 10.0 mi SW 9.2 mph - N/A   Clear
10:53 AM -5.8 °F -21.2 °F -14.8 °F 65% 30.67 in 10.0 mi WSW 8.1 mph - N/A   Clear
11:14 AM -4.0 °F -19.0 °F -13.0 °F 65% 30.67 in 10.0 mi WSW 8.1 mph - N/A   Clear
11:33 AM -2.2 °F -18.0 °F -13.0 °F 60% 30.67 in 10.0 mi SW 9.2 mph - N/A   Clear
11:53 AM -2.2 °F -12.5 °F -14.8 °F 55% 30.66 in 10.0 mi West 4.6 mph - N/A   Clear
12:13 PM -2.2 °F -12.5 °F -13.0 °F 60% 30.65 in 10.0 mi West 4.6 mph - N/A   Clear
12:33 PM -2.2 °F -14.2 °F -13.0 °F 60% 30.64 in 10.0 mi West 5.8 mph - N/A   Clear
12:53 PM -2.2 °F -14.2 °F -11.2 °F 66% 30.65 in 10.0 mi West 5.8 mph - N/A   Clear
1:13 PM -0.4 °F -10.4 °F -11.2 °F 60% 30.64 in 10.0 mi West 4.6 mph - N/A   Scattered Clouds
1:34 PM -0.4 °F - -11.2 °F 60% 30.64 in 10.0 mi Calm Calm - N/A   Overcast
1:53 PM -0.4 °F -13.4 °F -11.2 °F 60% 30.62 in 10.0 mi West 6.9 mph - N/A   Overcast
2:13 PM -0.4 °F -10.4 °F -11.2 °F 60% 30.61 in 10.0 mi WNW 4.6 mph - N/A   Scattered Clouds
2:33 PM -0.4 °F - -11.2 °F 60% 30.60 in 10.0 mi Calm Calm - N/A   Mostly Cloudy
2:53 PM -0.4 °F - -11.2 °F 60% 30.60 in 10.0 mi Calm Calm - N/A   Scattered Clouds
3:13 PM -0.4 °F - -11.2 °F 60% 30.60 in 10.0 mi Calm Calm - N/A   Clear
3:34 PM -0.4 °F -8.3 °F -9.4 °F 66% 30.59 in 10.0 mi WSW 3.5 mph - N/A   Clear
3:54 PM 1.4 °F - -9.4 °F 61% 30.59 in 10.0 mi Calm Calm - N/A   Clear
4:14 PM 1.4 °F - -9.4 °F 61% 30.59 in 10.0 mi Calm Calm - N/A   Clear
4:33 PM -0.4 °F -8.3 °F -9.4 °F 66% 30.58 in 10.0 mi East 3.5 mph - N/A   Clear
4:53 PM -0.4 °F -8.3 °F -9.4 °F 66% 30.58 in 10.0 mi East 3.5 mph - N/A   Clear
5:13 PM -0.4 °F - -9.4 °F 66% 30.58 in 10.0 mi Calm Calm - N/A   Mostly Cloudy
5:34 PM -2.2 °F - -9.4 °F 71% 30.57 in 10.0 mi Calm Calm - N/A   Mostly Cloudy
5:53 PM -2.2 °F - -9.4 °F 71% 30.57 in 10.0 mi Calm Calm - N/A   Scattered Clouds
6:13 PM -4.0 °F - -9.4 °F 78% 30.56 in 10.0 mi Calm Calm - N/A   Clear
6:33 PM -5.8 °F - -9.4 °F 84% 30.56 in 10.0 mi Calm Calm - N/A   Clear
6:53 PM -5.8 °F - -9.4 °F 84% 30.55 in 10.0 mi Calm Calm - N/A   Clear
7:13 PM -5.8 °F - -9.4 °F 84% 30.54 in 10.0 mi Calm Calm - N/A   Clear
7:34 PM -7.6 °F - -13.0 °F 77% 30.54 in 10.0 mi Calm Calm - N/A   Clear
7:53 PM -9.4 °F -22.7 °F -13.0 °F 84% 30.54 in 10.0 mi ESE 5.8 mph - N/A   Clear
8:14 PM -7.6 °F -16.5 °F -11.2 °F 84% 30.54 in 10.0 mi SE 3.5 mph - N/A   Clear
8:33 PM -7.6 °F -16.5 °F -11.2 °F 84% 30.53 in 10.0 mi SSE 3.5 mph - N/A   Clear
8:53 PM -9.4 °F -20.9 °F -14.8 °F 77% 30.53 in 10.0 mi ESE 4.6 mph - N/A   Clear
9:13 PM -9.4 °F -20.9 °F -13.0 °F 84% 30.52 in 10.0 mi South 4.6 mph - N/A   Clear
9:33 PM -7.6 °F - -11.2 °F 84% 30.52 in 10.0 mi Calm Calm - N/A   Clear
9:54 PM -7.6 °F - -11.2 °F 84% 30.52 in 10.0 mi Calm Calm - N/A   Clear
10:13 PM -7.6 °F - -13.0 °F 77% 30.52 in 10.0 mi Calm Calm - N/A   Scattered Clouds
10:33 PM -7.6 °F -16.5 °F -11.2 °F 84% 30.50 in 10.0 mi South 3.5 mph - N/A   Mostly Cloudy
10:53 PM -7.6 °F -16.5 °F -11.2 °F 84% 30.51 in 10.0 mi South 3.5 mph - N/A   Overcast
11:13 PM -5.8 °F - -11.2 °F 77% 30.50 in 10.0 mi Calm Calm - N/A   Overcast
11:33 PM -5.8 °F - -9.4 °F 84% 30.49 in 10.0 mi Calm Calm - N/A   Overcast
11:54 PM -5.8 °F - -9.4 °F 84% 30.49 in 10.0 mi Calm Calm - N/A   Overcast